Regional Weather Roundup
Issued by NWS

Home | Current Version | Previous Version | Graphics & Text | Print | Product List | Glossary On
Versions: 1 2 3 4 5 6 7 8 9 10 11 12 13 14 15 16 17 18 19 20 21 22 23 24 25 26 27
000
ASUS45 KSLC 190710
RWRUT

UTAH REGIONAL WEATHER ROUNDUP
NATIONAL WEATHER SERVICE SALT LAKE CITY UT
1200 AM MST THU JAN 19 2017

UTZ001>011-023>025-190800-

NORTHERN UTAH

CITY           SKY/WX    TMP DP  RH WIND       PRES   REMARKS
BRIGHAM CITY     N/A     24  19  80 CALM      29.87F
HILL AFB       CLOUDY    21  18  86 N3        29.83F
LOGAN          CLOUDY    15  11  83 CALM      29.88F FOG
OGDEN          CLOUDY    22  18  85 N5        29.84F FOG     WCI  16
SALT LAKE CITY CLOUDY    26  22  84 CALM      29.85F
TOOELE VALLEY  MOCLDY    27  25  93 N3        29.86F FOG
WENDOVER       CLOUDY    25  19  80 E3        29.86F
HEBER CITY     CLOUDY    14  10  85 E3        29.84F
WEST JORDAN    MOCLDY    25  25 100 N8        29.84F WCI  16

$$

UTZ011>015-024>027-190800-

CENTRAL/NORTHEAST UTAH

CITY           SKY/WX    TMP DP  RH WIND       PRES   REMARKS
PROVO AIRPORT  MOCLDY    28  25  88 CALM      29.87F
MOAB/CANYONLAN MOCLDY    29  27  92 W5        29.95F WCI  24
DELTA          MOCLDY    37  23  56 S15       29.85F WCI  28
PRICE          MOCLDY    15  11  83 N8        29.93F WCI   4
ROOSEVELT      CLOUDY     1  -4  78 W3        30.05F
VERNAL         CLOUDY     7   3  84 W7        30.02F WCI  -5

$$

UTZ013>016-019>022-027-190800-

SOUTHERN UTAH

CITY           SKY/WX    TMP DP  RH WIND       PRES   REMARKS
BRYCE CANYON   CLEAR      4   0  83 SW6       29.95F WCI  -7
CEDAR CITY     CLOUDY    41  18  39 S15G25    29.90R
MILFORD        CLOUDY    34  25  69 SW12      29.88F WCI  25
ST GEORGE      PTSUNNY   43  30  61 CALM      29.97F
HANKSVILLE     PTCLDY    28  25  86 MISG      29.98F
BLANDING       CLEAR     27  25  90 N5        30.04F WCI  22

$$

REGIONAL REPORTS     COLORADO/ARIZONA

CITY           SKY/WX    TMP DP  RH WIND       PRES   REMARKS
CRAIG, CO      CLOUDY     7   1  76 E3        29.96F
GRAND JUNCTION CLOUDY    30  28  92 E6        29.97F WCI  24
RIFLE, CO      CLOUDY    27  22  81 CALM      29.98S
MONTROSE, CO   CLOUDY    28  24  85 CALM      29.99F
CORTEZ, CO     CLOUDY    25  24  96 E6        29.98F WCI  18
COLORADO CITY  CLOUDY    32  32 100 CALM      30.00F
PAGE, AZ       CLEAR     35  27  72 CALM      29.94F
GRAND CANYON   CLEAR     23  21  92 SW5       30.03F WCI  17
KINGMAN, AZ    CLOUDY    47  24  40 S10       30.01F
FLAGSTAFF, AZ  CLOUDY    32  29  88 SW9       30.03F WCI  24

$$

REGIONAL REPORTS    NEVADA/IDAHO/WYOMING

CITY           SKY/WX    TMP DP  RH WIND       PRES   REMARKS
LAS VEGAS, NV  CLOUDY    51  33  50 SW10      29.93S
ELY, NY        LGT SNOW  28  26  92 SE16      29.86F VSB 3/4 WCI  16
ELKO, NV       FLURRIES  34  29  82 S7        29.76F WCI  28
POCATELLO, ID  LGT SNOW  23  21  92 N8        29.81F FOG     WCI  14
BURLEY, ID     LGT RAIN  37  30  75 S18       29.73F WCI  27
FORT BRIDGER,    N/A      3  -2  81 E5        29.86F WCI  -7
EVANSTON, WY   CLOUDY    25   9  50 S6        29.81F WCI  18
ROCK SPRINGS,  CLOUDY     5   3  91 NE5       29.84F WCI  -4

$$




USA.gov is the U.S. government's official web portal to all federal, state and local government web resources and services.